| time (UTC) | temp C | wind direction | speed KPH | gust KPH | rain 1hr cm | rain 24hr cm | rain mn cm | humidity % | barometer mb |
| 20260505124550 | 17 | 255 | 1.6 | 11.3 | 0.00 | 0.00 | 0.00 | 82 | 1018.1 |
| 20260505124044 | 17 | 248 | 1.6 | 8.0 | 0.00 | 0.00 | 0.00 | 84 | 1018.0 |
| 20260505123546 | 16 | 360 | 0.0 | 4.8 | 0.00 | 0.00 | 0.00 | 85 | 1018.0 |
| 20260505123043 | 16 | 232 | 0.0 | 4.8 | 0.00 | 0.00 | 0.00 | 87 | 1018.0 |
| 20260505122544 | 15 | 223 | 0.0 | 0.0 | 0.00 | 0.00 | 0.00 | 88 | 1017.9 |
| 20260505122041 | 15 | 226 | 0.0 | 0.0 | 0.00 | 0.00 | 0.00 | 89 | 1017.9 |
| 20260505121540 | 15 | 205 | 0.0 | 3.2 | 0.00 | 0.00 | 0.00 | 90 | 1017.9 |
| 20260505121041 | 14 | 194 | 0.0 | 3.2 | 0.00 | 0.00 | 0.00 | 91 | 1017.8 |
| 20260505120540 | 14 | 194 | 0.0 | 4.8 | 0.00 | 0.00 | 0.00 | 91 | 1017.9 |
| 20260505120048 | 13 | 193 | 0.0 | 0.0 | 0.00 | 0.00 | 0.00 | 92 | 1017.8 |
| 20260505115538 | 13 | 151 | 0.0 | 0.0 | 0.00 | 0.00 | 0.00 | 93 | 1017.8 |
| 20260505115041 | 13 | 155 | 0.0 | 0.0 | 0.00 | 0.00 | 0.00 | 93 | 1017.7 |
| 20260505114538 | 12 | 118 | 0.0 | 0.0 | 0.00 | 0.00 | 0.00 | 94 | 1017.8 |
| 20260505114038 | 12 | 77 | 0.0 | 0.0 | 0.00 | 0.00 | 0.00 | 95 | 1017.7 |
| 20260505113536 | 12 | 13 | 0.0 | 0.0 | 0.00 | 0.00 | 0.00 | 95 | 1017.7 |
| 20260505113038 | 11 | 45 | 0.0 | 0.0 | 0.00 | 0.00 | 0.00 | 95 | 1017.8 |
| 20260505112536 | 11 | 49 | 0.0 | 0.0 | 0.00 | 0.00 | 0.00 | 95 | 1017.7 |
| 20260505112036 | 11 | 62 | 0.0 | 0.0 | 0.00 | 0.00 | 0.00 | 96 | 1017.7 |
| 20260505111535 | 10 | 43 | 0.0 | 0.0 | 0.00 | 0.00 | 0.00 | 95 | 1017.6 |
| 20260505111039 | 10 | 44 | 0.0 | 0.0 | 0.00 | 0.00 | 0.00 | 95 | 1017.6 |
| 20260505110533 | 10 | 44 | 0.0 | 0.0 | 0.00 | 0.00 | 0.00 | 95 | 1017.5 |
| 20260505102030 | 10 | 44 | 0.0 | 0.0 | 0.00 | 0.00 | 0.00 | 93 | 1017.0 |
| 20260505101528 | 10 | 44 | 0.0 | 0.0 | 0.00 | 0.00 | 0.00 | 93 | 1016.9 |
| 20260505101028 | 10 | 232 | 0.0 | 0.0 | 0.00 | 0.00 | 0.00 | 93 | 1016.9 |
| 20260505100529 | 10 | 232 | 0.0 | 0.0 | 0.00 | 0.00 | 0.00 | 93 | 1016.9 |
| 20260505100027 | 10 | 232 | 0.0 | 0.0 | 0.00 | 0.00 | 0.00 | 93 | 1016.8 |
| 20260505095526 | 10 | 232 | 0.0 | 0.0 | 0.00 | 0.00 | 0.00 | 93 | 1016.9 |
| 20260505095027 | 10 | 232 | 0.0 | 0.0 | 0.00 | 0.00 | 0.00 | 93 | 1016.9 |
| 20260505094530 | 10 | 232 | 0.0 | 0.0 | 0.00 | 0.00 | 0.00 | 93 | 1016.9 |
| 20260505094025 | 10 | 232 | 0.0 | 0.0 | 0.00 | 0.00 | 0.00 | 93 | 1017.0 |
| 20260505093526 | 10 | 232 | 0.0 | 0.0 | 0.00 | 0.00 | 0.00 | 92 | 1016.9 |
| 20260505093025 | 10 | 232 | 0.0 | 0.0 | 0.00 | 0.00 | 0.00 | 93 | 1016.9 |
| 20260505092524 | 10 | 232 | 0.0 | 0.0 | 0.00 | 0.00 | 0.00 | 92 | 1016.9 |
| 20260505092023 | 10 | 232 | 0.0 | 0.0 | 0.00 | 0.00 | 0.00 | 92 | 1016.8 |
| 20260505091522 | 10 | 232 | 0.0 | 0.0 | 0.00 | 0.00 | 0.00 | 92 | 1016.7 |
| 20260505091022 | 10 | 360 | 0.0 | 0.0 | 0.00 | 0.00 | 0.00 | 92 | 1016.7 |
| 20260505090521 | 11 | 360 | 0.0 | 0.0 | 0.00 | 0.00 | 0.00 | 91 | 1016.7 |
| 20260505090020 | 11 | 252 | 0.0 | 0.0 | 0.00 | 0.00 | 0.00 | 91 | 1016.7 |
| 20260505085522 | 11 | 249 | 0.0 | 0.0 | 0.00 | 0.00 | 0.00 | 91 | 1016.8 |
| 20260505085018 | 11 | 250 | 0.0 | 0.0 | 0.00 | 0.00 | 0.00 | 91 | 1016.7 |
| 20260505084537 | 11 | 246 | 0.0 | 0.0 | 0.00 | 0.00 | 0.00 | 90 | 1016.5 |
| 20260505084017 | 11 | 247 | 0.0 | 0.0 | 0.00 | 0.00 | 0.00 | 91 | 1016.4 |
| 20260505083517 | 11 | 245 | 0.0 | 0.0 | 0.00 | 0.00 | 0.00 | 91 | 1016.4 |
| 20260505083018 | 11 | 246 | 0.0 | 0.0 | 0.00 | 0.00 | 0.00 | 91 | 1016.4 |
| 20260505082516 | 11 | 245 | 0.0 | 0.0 | 0.00 | 0.00 | 0.00 | 91 | 1016.3 |
| 20260505082016 | 11 | 246 | 0.0 | 0.0 | 0.00 | 0.00 | 0.00 | 91 | 1016.4 |
| 20260505081519 | 11 | 246 | 0.0 | 0.0 | 0.00 | 0.00 | 0.00 | 90 | 1016.3 |
| 20260505081015 | 11 | 244 | 0.0 | 0.0 | 0.00 | 0.00 | 0.00 | 90 | 1016.3 |
| 20260505080515 | 12 | 244 | 0.0 | 0.0 | 0.00 | 0.00 | 0.00 | 90 | 1016.2 |
| 20260505080013 | 12 | 244 | 0.0 | 0.0 | 0.00 | 0.00 | 0.00 | 90 | 1016.1 |
| 20260505075512 | 12 | 244 | 0.0 | 0.0 | 0.00 | 0.00 | 0.00 | 91 | 1016.0 |
| 20260505075012 | 12 | 244 | 0.0 | 0.0 | 0.00 | 0.00 | 0.00 | 90 | 1016.1 |
| 20260505074512 | 12 | 244 | 0.0 | 0.0 | 0.00 | 0.00 | 0.00 | 90 | 1016.0 |
| 20260505074012 | 12 | 244 | 0.0 | 0.0 | 0.00 | 0.00 | 0.00 | 91 | 1016.0 |
| 20260505073512 | 12 | 244 | 0.0 | 0.0 | 0.00 | 0.00 | 0.00 | 90 | 1016.0 |
| 20260505073010 | 12 | 246 | 0.0 | 0.0 | 0.00 | 0.00 | 0.00 | 89 | 1016.0 |
| 20260505072511 | 12 | 246 | 0.0 | 0.0 | 0.00 | 0.00 | 0.00 | 89 | 1016.0 |
| 20260505072012 | 12 | 246 | 0.0 | 0.0 | 0.00 | 0.00 | 0.00 | 88 | 1016.0 |
| 20260505071508 | 12 | 246 | 0.0 | 0.0 | 0.00 | 0.00 | 0.00 | 88 | 1016.0 |
| 20260505071008 | 12 | 244 | 0.0 | 0.0 | 0.00 | 0.00 | 0.00 | 88 | 1016.1 |
| 20260505070512 | 12 | 244 | 0.0 | 0.0 | 0.00 | 0.00 | 0.00 | 88 | 1016.1 |
| 20260505070008 | 12 | 245 | 0.0 | 0.0 | 0.00 | 0.00 | 0.00 | 87 | 1016.2 |
| 20260505065506 | 12 | 245 | 0.0 | 0.0 | 0.00 | 0.00 | 0.00 | 86 | 1016.1 |
| 20260505065004 | 12 | 244 | 0.0 | 0.0 | 0.00 | 0.00 | 0.00 | 86 | 1016.2 |
| 20260505064503 | 12 | 248 | 0.0 | 0.0 | 0.00 | 0.00 | 0.00 | 86 | 1016.3 |
| 20260505064004 | 13 | 248 | 0.0 | 0.0 | 0.00 | 0.00 | 0.00 | 85 | 1016.3 |
| 20260505063502 | 13 | 248 | 0.0 | 0.0 | 0.00 | 0.00 | 0.00 | 86 | 1016.3 |
| 20260505063002 | 13 | 259 | 0.0 | 0.0 | 0.00 | 0.00 | 0.00 | 85 | 1016.3 |
| 20260505062600 | 13 | 260 | 0.0 | 0.0 | 0.00 | 0.00 | 0.00 | 84 | 1016.3 |
| 20260505062501 | 13 | 257 | 0.0 | 0.0 | 0.00 | 0.00 | 0.00 | 84 | 1016.3 |
| 20260505062100 | 13 | 262 | 0.0 | 0.0 | 0.00 | 0.00 | 0.00 | 84 | 1016.4 |
| 20260505061600 | 13 | 257 | 0.0 | 0.0 | 0.00 | 0.00 | 0.00 | 84 | 1016.5 |
| 20260505061058 | 13 | 252 | 0.0 | 0.0 | 0.00 | 0.00 | 0.00 | 83 | 1016.5 |
| 20260505060559 | 13 | 280 | 0.0 | 0.0 | 0.00 | 0.00 | 0.00 | 83 | 1016.6 |
| 20260505060059 | 13 | 234 | 0.0 | 0.0 | 0.00 | 0.00 | 0.00 | 83 | 1016.6 |
| 20260505055556 | 13 | 232 | 0.0 | 0.0 | 0.00 | 0.00 | 0.00 | 82 | 1016.7 |
| 20260505055058 | 13 | 232 | 0.0 | 0.0 | 0.00 | 0.00 | 0.00 | 82 | 1016.7 |
| 20260505054554 | 13 | 234 | 0.0 | 0.0 | 0.00 | 0.00 | 0.00 | 82 | 1016.7 |
| 20260505054055 | 13 | 234 | 0.0 | 0.0 | 0.00 | 0.00 | 0.00 | 82 | 1016.7 |
| 20260505053554 | 13 | 234 | 0.0 | 0.0 | 0.00 | 0.00 | 0.00 | 81 | 1016.8 |
| 20260505053113 | 13 | 233 | 0.0 | 0.0 | 0.00 | 0.00 | 0.00 | 82 | 1016.8 |
| 20260505052551 | 14 | 233 | 0.0 | 0.0 | 0.00 | 0.00 | 0.00 | 81 | 1016.9 |
| 20260505052051 | 14 | 233 | 0.0 | 0.0 | 0.00 | 0.00 | 0.00 | 81 | 1016.8 |
| 20260505051550 | 14 | 233 | 0.0 | 0.0 | 0.00 | 0.00 | 0.00 | 81 | 1016.9 |
| 20260505051050 | 14 | 233 | 0.0 | 0.0 | 0.00 | 0.00 | 0.00 | 82 | 1016.9 |
| 20260505050549 | 14 | 232 | 0.0 | 0.0 | 0.00 | 0.00 | 0.00 | 82 | 1017.0 |
| 20260505041543 | 16 | 238 | 0.0 | 0.0 | 0.00 | 0.00 | 0.00 | 75 | 1017.0 |
| 20260505041039 | 16 | 242 | 0.0 | 0.0 | 0.00 | 0.00 | 0.00 | 75 | 1017.0 |
| 20260505040536 | 16 | 238 | 0.0 | 0.0 | 0.00 | 0.00 | 0.00 | 74 | 1017.1 |
| 20260505040037 | 16 | 238 | 0.0 | 0.0 | 0.00 | 0.00 | 0.00 | 72 | 1017.0 |
| 20260505035535 | 16 | 238 | 0.0 | 0.0 | 0.00 | 0.00 | 0.00 | 72 | 1017.0 |
| 20260505035034 | 17 | 240 | 0.0 | 0.0 | 0.00 | 0.00 | 0.00 | 71 | 1017.0 |
| 20260505034535 | 17 | 240 | 0.0 | 1.6 | 0.00 | 0.00 | 0.00 | 71 | 1017.1 |
| 20260505034036 | 17 | 240 | 0.0 | 4.8 | 0.00 | 0.00 | 0.00 | 70 | 1017.1 |
| 20260505033534 | 17 | 242 | 0.0 | 6.4 | 0.00 | 0.00 | 0.00 | 70 | 1017.0 |
| 20260505033038 | 17 | 234 | 1.6 | 6.4 | 0.00 | 0.00 | 0.00 | 70 | 1017.1 |
| 20260505032534 | 17 | 234 | 0.0 | 6.4 | 0.00 | 0.00 | 0.00 | 69 | 1017.1 |
| 20260505032033 | 17 | 224 | 0.0 | 6.4 | 0.00 | 0.00 | 0.00 | 69 | 1017.1 |
| 20260505031533 | 17 | 235 | 3.2 | 6.4 | 0.00 | 0.00 | 0.00 | 69 | 1017.1 |
| 20260505031037 | 17 | 217 | 3.2 | 9.7 | 0.00 | 0.00 | 0.00 | 68 | 1017.2 |
| 20260505030533 | 17 | 223 | 3.2 | 8.0 | 0.00 | 0.00 | 0.00 | 68 | 1017.2 |
| 20260505030033 | 18 | 209 | 3.2 | 8.0 | 0.00 | 0.00 | 0.00 | 68 | 1017.2 |
| 20260505025534 | 18 | 230 | 1.6 | 8.0 | 0.00 | 0.00 | 0.00 | 68 | 1017.2 |
| 20260505025033 | 18 | 259 | 1.6 | 9.7 | 0.00 | 0.00 | 0.00 | 68 | 1017.3 |
| 20260505024532 | 18 | 214 | 1.6 | 9.7 | 0.00 | 0.00 | 0.00 | 67 | 1017.2 |
| 20260505024032 | 18 | 201 | 1.6 | 8.0 | 0.00 | 0.00 | 0.00 | 67 | 1017.2 |
| 20260505023532 | 18 | 222 | 1.6 | 9.7 | 0.00 | 0.00 | 0.00 | 67 | 1017.2 |
| 20260505023032 | 18 | 241 | 3.2 | 9.7 | 0.00 | 0.00 | 0.00 | 66 | 1017.2 |
| 20260505022531 | 18 | 192 | 3.2 | 11.3 | 0.00 | 0.00 | 0.00 | 65 | 1017.2 |
| 20260505022031 | 18 | 225 | 3.2 | 8.0 | 0.00 | 0.00 | 0.00 | 65 | 1017.1 |
| 20260505021531 | 18 | 201 | 1.6 | 8.0 | 0.00 | 0.00 | 0.00 | 64 | 1017.1 |
| 20260505021032 | 18 | 209 | 0.0 | 6.4 | 0.00 | 0.00 | 0.00 | 63 | 1017.1 |
| 20260505020531 | 19 | 216 | 3.2 | 11.3 | 0.00 | 0.00 | 0.00 | 62 | 1017.1 |
| 20260505020030 | 19 | 219 | 3.2 | 11.3 | 0.00 | 0.00 | 0.00 | 62 | 1017.1 |
| 20260505015530 | 19 | 213 | 3.2 | 9.7 | 0.00 | 0.00 | 0.00 | 61 | 1017.0 |
| 20260505015030 | 19 | 217 | 3.2 | 9.7 | 0.00 | 0.00 | 0.00 | 61 | 1017.0 |
| 20260505014530 | 20 | 231 | 4.8 | 11.3 | 0.00 | 0.00 | 0.00 | 60 | 1017.0 |
| 20260505014030 | 20 | 207 | 3.2 | 11.3 | 0.00 | 0.00 | 0.00 | 60 | 1016.9 |
| 20260505013536 | 20 | 215 | 3.2 | 11.3 | 0.00 | 0.00 | 0.00 | 59 | 1016.9 |
| 20260505013030 | 20 | 227 | 3.2 | 12.9 | 0.00 | 0.00 | 0.00 | 59 | 1016.9 |
| 20260505012529 | 20 | 216 | 6.4 | 12.9 | 0.00 | 0.00 | 0.00 | 59 | 1016.8 |
| 20260505012031 | 20 | 207 | 4.8 | 12.9 | 0.00 | 0.00 | 0.00 | 58 | 1016.7 |
| 20260505011546 | 20 | 202 | 6.4 | 16.1 | 0.00 | 0.00 | 0.00 | 58 | 1016.7 |
| 20260505011028 | 20 | 232 | 6.4 | 16.1 | 0.00 | 0.00 | 0.00 | 57 | 1016.5 |
| 20260505010531 | 20 | 209 | 6.4 | 16.1 | 0.00 | 0.00 | 0.00 | 57 | 1016.5 |
| 20260505010027 | 20 | 213 | 8.0 | 14.5 | 0.00 | 0.00 | 0.00 | 57 | 1016.3 |
| 20260505005528 | 21 | 220 | 4.8 | 12.9 | 0.00 | 0.00 | 0.00 | 57 | 1016.3 |
| 20260505005027 | 21 | 213 | 4.8 | 12.9 | 0.00 | 0.00 | 0.00 | 56 | 1016.2 |
| 20260505004527 | 21 | 207 | 4.8 | 14.5 | 0.00 | 0.00 | 0.00 | 56 | 1016.0 |
| 20260505004026 | 21 | 189 | 6.4 | 17.7 | 0.00 | 0.00 | 0.00 | 56 | 1016.0 |
| 20260505003527 | 21 | 326 | 8.0 | 17.7 | 0.00 | 0.00 | 0.00 | 56 | 1016.0 |
| 20260505003027 | 21 | 251 | 4.8 | 16.1 | 0.00 | 0.00 | 0.00 | 56 | 1015.8 |
| 20260505002527 | 21 | 215 | 4.8 | 12.9 | 0.00 | 0.00 | 0.00 | 57 | 1015.8 |
| 20260505002027 | 21 | 202 | 4.8 | 11.3 | 0.00 | 0.00 | 0.00 | 56 | 1015.8 |
| 20260505001527 | 22 | 205 | 4.8 | 19.3 | 0.00 | 0.00 | 0.00 | 56 | 1015.7 |
| 20260505001026 | 22 | 234 | 8.0 | 22.5 | 0.00 | 0.00 | 0.00 | 55 | 1015.6 |
| 20260505000526 | 22 | 157 | 11.3 | 22.5 | 0.00 | 0.00 | 0.00 | 55 | 1015.6 |
| 20260505000036 | 22 | 207 | 3.2 | 16.1 | 0.00 | 0.00 | 0.00 | 54 | 1015.5 |
| 20260504235525 | 22 | 192 | 6.4 | 17.7 | 0.00 | 0.00 | 0.00 | 53 | 1015.4 |
| 20260504235026 | 22 | 210 | 6.4 | 17.7 | 0.00 | 0.00 | 0.00 | 51 | 1015.4 |
| 20260504234529 | 23 | 207 | 6.4 | 16.1 | 0.00 | 0.00 | 0.00 | 49 | 1015.3 |
| 20260504234024 | 23 | 230 | 3.2 | 11.3 | 0.00 | 0.00 | 0.00 | 45 | 1015.3 |
| 20260504233528 | 23 | 219 | 0.0 | 11.3 | 0.00 | 0.00 | 0.00 | 44 | 1015.1 |
| 20260504233025 | 23 | 213 | 1.6 | 16.1 | 0.00 | 0.00 | 0.00 | 43 | 1015.1 |
| 20260504232525 | 23 | 219 | 4.8 | 16.1 | 0.00 | 0.00 | 0.00 | 42 | 1015.1 |
| 20260504232024 | 23 | 219 | 3.2 | 9.7 | 0.00 | 0.00 | 0.00 | 42 | 1015.1 |
| 20260504231525 | 24 | 323 | 0.0 | 11.3 | 0.00 | 0.00 | 0.00 | 41 | 1015.1 |
| 20260504231025 | 24 | 220 | 1.6 | 12.9 | 0.00 | 0.00 | 0.00 | 41 | 1015.2 |
| 20260504230525 | 24 | 234 | 4.8 | 16.1 | 0.00 | 0.00 | 0.00 | 41 | 1015.1 |
| 20260504230024 | 24 | 202 | 1.6 | 12.9 | 0.00 | 0.00 | 0.00 | 41 | 1015.1 |
| 20260504225523 | 25 | 252 | 3.2 | 16.1 | 0.00 | 0.00 | 0.00 | 40 | 1015.1 |
| 20260504225024 | 25 | 151 | 3.2 | 16.1 | 0.00 | 0.00 | 0.00 | 40 | 1015.1 |
| 20260504224527 | 25 | 282 | 6.4 | 16.1 | 0.00 | 0.00 | 0.00 | 39 | 1015.1 |
| 20260504224025 | 25 | 209 | 3.2 | 12.9 | 0.00 | 0.00 | 0.00 | 40 | 1015.1 |
| 20260504223523 | 25 | 157 | 6.4 | 12.9 | 0.00 | 0.00 | 0.00 | 39 | 1015.2 |
| 20260504223026 | 25 | 232 | 6.4 | 16.1 | 0.00 | 0.00 | 0.00 | 39 | 1015.2 |
| 20260504222523 | 25 | 152 | 6.4 | 14.5 | 0.00 | 0.00 | 0.00 | 39 | 1015.1 |
| 20260504222024 | 25 | 192 | 6.4 | 16.1 | 0.00 | 0.00 | 0.00 | 38 | 1015.2 |
| 20260504221523 | 25 | 214 | 6.4 | 27.4 | 0.00 | 0.00 | 0.00 | 38 | 1015.2 |
| 20260504221022 | 25 | 206 | 9.7 | 27.4 | 0.00 | 0.00 | 0.00 | 38 | 1015.2 |
| 20260504220523 | 25 | 148 | 11.3 | 24.1 | 0.00 | 0.00 | 0.00 | 37 | 1015.2 |
| 20260504220022 | 26 | 207 | 6.4 | 16.1 | 0.00 | 0.00 | 0.00 | 36 | 1015.1 |
| 20260504215521 | 26 | 256 | 3.2 | 22.5 | 0.00 | 0.00 | 0.00 | 37 | 1015.2 |
| 20260504215022 | 26 | 195 | 4.8 | 16.1 | 0.00 | 0.00 | 0.00 | 35 | 1015.1 |
| 20260504214522 | 26 | 296 | 1.6 | 12.9 | 0.00 | 0.00 | 0.00 | 36 | 1015.1 |
| 20260504214021 | 26 | 184 | 4.8 | 12.9 | 0.00 | 0.00 | 0.00 | 35 | 1015.2 |
| 20260504213521 | 26 | 263 | 6.4 | 20.9 | 0.00 | 0.00 | 0.00 | 35 | 1015.1 |
| 20260504213021 | 26 | 205 | 8.0 | 20.9 | 0.00 | 0.00 | 0.00 | 37 | 1015.1 |
| 20260504212524 | 26 | 302 | 4.8 | 12.9 | 0.00 | 0.00 | 0.00 | 36 | 1015.2 |
| 20260504212020 | 26 | 194 | 6.4 | 17.7 | 0.00 | 0.00 | 0.00 | 36 | 1015.2 |
| 20260504211520 | 26 | 236 | 8.0 | 20.9 | 0.00 | 0.00 | 0.00 | 35 | 1015.2 |
| 20260504211021 | 26 | 236 | 4.8 | 20.9 | 0.00 | 0.00 | 0.00 | 37 | 1015.1 |
| 20260504210520 | 26 | 219 | 8.0 | 24.1 | 0.00 | 0.00 | 0.00 | 37 | 1015.2 |
| 20260504210021 | 26 | 210 | 6.4 | 24.1 | 0.00 | 0.00 | 0.00 | 36 | 1015.2 |
| 20260504205518 | 26 | 222 | 6.4 | 17.7 | 0.00 | 0.00 | 0.00 | 36 | 1015.1 |
| 20260504205018 | 26 | 270 | 11.3 | 17.7 | 0.00 | 0.00 | 0.00 | 36 | 1015.3 |
| 20260504204520 | 26 | 211 | 1.6 | 16.1 | 0.00 | 0.00 | 0.00 | 36 | 1015.2 |
| 20260504204018 | 26 | 197 | 8.0 | 16.1 | 0.00 | 0.00 | 0.00 | 36 | 1015.4 |
| 20260504203518 | 27 | 248 | 6.4 | 19.3 | 0.00 | 0.00 | 0.00 | 36 | 1015.4 |
| 20260504203017 | 26 | 44 | 1.6 | 14.5 | 0.00 | 0.00 | 0.00 | 35 | 1015.4 |
| 20260504202517 | 26 | 202 | 3.2 | 12.9 | 0.00 | 0.00 | 0.00 | 37 | 1015.4 |
| 20260504202018 | 26 | 222 | 4.8 | 12.9 | 0.00 | 0.00 | 0.00 | 37 | 1015.4 |
| 20260504201516 | 26 | 186 | 1.6 | 14.5 | 0.00 | 0.00 | 0.00 | 38 | 1015.3 |
| 20260504201016 | 26 | 167 | 8.0 | 17.7 | 0.00 | 0.00 | 0.00 | 36 | 1015.4 |
| 20260504200516 | 26 | 184 | 6.4 | 20.9 | 0.00 | 0.00 | 0.00 | 35 | 1015.5 |
| 20260504200015 | 26 | 198 | 6.4 | 20.9 | 0.00 | 0.00 | 0.00 | 37 | 1015.5 |
| 20260504195514 | 26 | 171 | 6.4 | 24.1 | 0.00 | 0.00 | 0.00 | 37 | 1015.5 |
| 20260504195014 | 26 | 182 | 3.2 | 14.5 | 0.00 | 0.00 | 0.00 | 38 | 1015.5 |
| 20260504194514 | 26 | 152 | 0.0 | 16.1 | 0.00 | 0.00 | 0.00 | 37 | 1015.6 |
| 20260504194013 | 26 | 200 | 8.0 | 16.1 | 0.00 | 0.00 | 0.00 | 37 | 1015.7 |
| 20260504193511 | 26 | 197 | 8.0 | 16.1 | 0.00 | 0.00 | 0.00 | 37 | 1015.8 |
| 20260504193013 | 26 | 180 | 3.2 | 22.5 | 0.00 | 0.00 | 0.00 | 36 | 1015.8 |
| 20260504192511 | 26 | 205 | 9.7 | 22.5 | 0.00 | 0.00 | 0.00 | 37 | 1015.8 |
| 20260504192010 | 26 | 192 | 4.8 | 17.7 | 0.00 | 0.00 | 0.00 | 37 | 1016.0 |
| 20260504191510 | 26 | 203 | 4.8 | 24.1 | 0.00 | 0.00 | 0.00 | 37 | 1016.0 |
| 20260504191010 | 26 | 178 | 12.9 | 24.1 | 0.00 | 0.00 | 0.00 | 36 | 1016.2 |
| 20260504190511 | 26 | 259 | 4.8 | 16.1 | 0.00 | 0.00 | 0.00 | 37 | 1016.2 |
| 20260504190008 | 26 | 200 | 3.2 | 11.3 | 0.00 | 0.00 | 0.00 | 37 | 1016.4 |
| 20260504185507 | 27 | 317 | 3.2 | 11.3 | 0.00 | 0.00 | 0.00 | 36 | 1016.5 |
| 20260504185007 | 26 | 101 | 0.0 | 14.5 | 0.00 | 0.00 | 0.00 | 38 | 1016.6 |
| 20260504184504 | 26 | 205 | 3.2 | 14.5 | 0.00 | 0.00 | 0.00 | 38 | 1016.7 |
| 20260504184008 | 26 | 271 | 1.6 | 17.7 | 0.00 | 0.00 | 0.00 | 38 | 1016.8 |
| 20260504183504 | 26 | 217 | 3.2 | 17.7 | 0.00 | 0.00 | 0.00 | 39 | 1016.9 |
| 20260504183004 | 26 | 275 | 1.6 | 12.9 | 0.00 | 0.00 | 0.00 | 38 | 1016.9 |
| 20260504182503 | 26 | 211 | 6.4 | 12.9 | 0.00 | 0.00 | 0.00 | 34 | 1017.0 |
| 20260504182002 | 25 | 213 | 8.0 | 12.9 | 0.00 | 0.00 | 0.00 | 40 | 1016.9 |
| 20260504181506 | 26 | 193 | 3.2 | 16.1 | 0.00 | 0.00 | 0.00 | 37 | 1017.1 |
| 20260504181002 | 26 | 229 | 0.0 | 11.3 | 0.00 | 0.00 | 0.00 | 38 | 1017.1 |
| 20260504180501 | 26 | 223 | 3.2 | 14.5 | 0.00 | 0.00 | 0.00 | 38 | 1017.1 |
| 20260504180100 | 26 | 229 | 1.6 | 14.5 | 0.00 | 0.00 | 0.00 | 38 | 1017.2 |
| 20260504175559 | 26 | 219 | 1.6 | 9.7 | 0.00 | 0.00 | 0.00 | 39 | 1017.2 |
| 20260504175058 | 25 | 271 | 0.0 | 14.5 | 0.00 | 0.00 | 0.00 | 36 | 1017.1 |
| 20260504174559 | 25 | 189 | 4.8 | 14.5 | 0.00 | 0.00 | 0.00 | 37 | 1017.3 |
| 20260504174059 | 25 | 211 | 1.6 | 9.7 | 0.00 | 0.00 | 0.00 | 40 | 1017.3 |
| 20260504173556 | 24 | 234 | 1.6 | 14.5 | 0.00 | 0.00 | 0.00 | 39 | 1017.3 |
| 20260504173057 | 24 | 242 | 3.2 | 14.5 | 0.00 | 0.00 | 0.00 | 40 | 1017.4 |
| 20260504172556 | 25 | 212 | 4.8 | 14.5 | 0.00 | 0.00 | 0.00 | 38 | 1017.4 |
| 20260504172056 | 25 | 209 | 6.4 | 16.1 | 0.00 | 0.00 | 0.00 | 40 | 1017.4 |
| 20260504171555 | 25 | 211 | 0.0 | 12.9 | 0.00 | 0.00 | 0.00 | 41 | 1017.4 |
| 20260504171054 | 25 | 193 | 3.2 | 12.9 | 0.00 | 0.00 | 0.00 | 40 | 1017.5 |
| 20260504170553 | 24 | 218 | 3.2 | 8.0 | 0.00 | 0.00 | 0.00 | 41 | 1017.6 |
| 20260504151039 | 22 | 304 | 1.6 | 11.3 | 0.00 | 0.00 | 0.00 | 44 | 1018.5 |
| 20260504150540 | 22 | 225 | 0.0 | 12.9 | 0.00 | 0.00 | 0.00 | 47 | 1018.5 |
| 20260504141028 | 20 | 235 | 0.0 | 9.7 | 0.00 | 0.00 | 0.00 | 60 | 1018.4 |
| 20260504140529 | 20 | 307 | 0.0 | 8.0 | 0.00 | 0.00 | 0.00 | 60 | 1018.4 |